Location: Unspecified
(29.2675°N, 0.0000°E)
Time: 08:22:30
(UTC+00:00)

ISS - Visible Passes

Search period start: 20 October 2019 00:00
Search period end: 30 October 2019 00:00
Orbit: 411 x 421 km, 51.6° (Epoch: 20 October)

Date Brightness Start Highest point End Pass type
(mag) Time Alt. Az. Time Alt. Az. Time Alt. Az.
21 Oct -1.6 05:32:44 10° S 05:35:42 29° SE 05:38:41 10° ENE visible
22 Oct -0.7 04:45:17 10° SSE 04:47:16 15° SE 04:49:15 10° E visible
23 Oct -3.8 05:31:48 10° SW 05:35:08 66° NW 05:38:28 10° NE visible
24 Oct -3.2 04:44:56 26° SSW 04:46:33 56° SE 04:49:51 10° NE visible
25 Oct -1.0 03:59:28 19° E 03:59:28 19° E 04:00:54 10° ENE visible
25 Oct -2.2 05:32:25 11° W 05:34:44 20° NW 05:37:17 10° N visible
26 Oct -2.7 04:46:39 32° NNW 04:46:39 32° NNW 04:49:08 10° NNE visible
27 Oct -0.5 04:00:39 10° NE 04:00:39 10° NE 04:00:43 10° NE visible
